Tracking 31027 objects as of 19-Jul-2025
HD Live streaming from Space Station
objects crossing your sky now

STARLINK-31066

Track STARLINK-31066 now!
10-day predictions
STARLINK-31066 is classified as:


NORAD ID: 58676
Int'l Code: 2023-211K
Perigee: 565.3 km
Apogee: 567.1 km
Inclination: 43.0 °
Period: 95.8 minutes
Semi major axis: 6937 km
RCS: Unknown
Launch date: December 29, 2023
Source: United States (US)
Launch site: AIR FORCE EASTERN TEST RANGE (AFETR)
Your satellite tracking list
KL-BETA B
Track 1 satellite(s)




NASA's NSSDC Master Catalog

Two Line Element Set (TLE):
1 58676U 23211K   25199.32493580 -.00000463  00000-0 -19192-4 0  9992
2 58676  43.0056  68.1573 0001287 240.1472 119.9243 15.02536379 86734
Source of the keplerian elements: AFSPC